Home > Weather > Belleville > Past weeks

Flag for Canada Past Weather in Belleville, Ontario, Canada — Yesterday and Last 2 Weeks

Now
79 °F

Partly sunny.


Feels Like: 81 °F
Forecast: 67 / 82 °F
Wind: No wind

Location: Trenton

Current Time: Jul 28, 2016 at 10:14:40 PM

Latest Report: Jul 28, 2016 at 9:00 PM


Visibility: 15 mi

Pressure: 29.87 "Hg

Humidity: 65%

Dew Point: 66 °F

Location of BellevilleLocation

Past Weather in Belleville — Graph

°F

Belleville Temperature Yesterday

Maximum temperature yesterday: 82 °F (at 2:00 PM)
Minimum temperature yesterday: 59 °F (at 5:00 AM)
Average temperature yesterday: 73 °F

High & Low Weather Summary for the Past Weeks

 TemperatureHumidityPressure
High95 °F (Jul 22, 4:00 PM)94% (Jul 17, 2:00 AM)30.25 "Hg (Jul 17, 2:00 AM)
Low55 °F (Jul 17, 2:00 AM)28% (Jul 22, 6:00 PM)29.70 "Hg (Jul 14, 7:00 PM)
Average74 °F65%29.94 "Hg
* Reported Jul 13 9:00 PM — Jul 28 9:00 PM, Belleville, Weather by CustomWeather, © 2016

Note: Actual official high and low records may vary slightly from our data, if they occured in-between our weather recording intervals... More about our weather records

Advertising

Belleville Weather History for the Previous 24 Hours

Scroll right to see more
 ConditionsComfort  
Time TempWeatherWind HumidityBarometerVisibility
9:00 PM
Thu, Jul 28
79 °FPartly sunny.No wind65%29.87 "Hg15 mi
8:00 PM81 °FMostly cloudy.No wind58%29.87 "Hg15 mi
7:00 PM82 °FOvercast.6 mph48%29.86 "Hg15 mi
6:00 PM84 °FOvercast.9 mph43%29.85 "Hg15 mi
5:00 PM86 °FOvercast.3 mph43%29.86 "Hg15 mi
4:00 PM84 °FBroken clouds.7 mph48%29.87 "Hg15 mi
3:00 PM84 °FMore clouds than sun.8 mph48%29.87 "Hg15 mi
2:00 PM84 °FMostly cloudy.8 mph51%29.88 "Hg15 mi
1:00 PM82 °FMostly cloudy.6 mph58%29.90 "Hg15 mi
12:00 PM82 °FMostly cloudy.5 mph58%29.90 "Hg15 mi
11:00 AM81 °FMostly cloudy.3 mph58%29.90 "Hg15 mi
10:00 AM79 °FBroken clouds.2 mph65%29.91 "Hg15 mi
9:00 AM75 °FBroken clouds.5 mph69%29.92 "Hg15 mi
8:00 AM73 °FPartly sunny.7 mph74%29.91 "Hg15 mi
7:00 AM70 °FPartly sunny.3 mph78%29.90 "Hg15 mi
6:00 AM70 °FPassing clouds.5 mph78%29.89 "Hg15 mi
5:00 AM70 °FPassing clouds.6 mph78%29.88 "Hg15 mi
4:00 AM72 °FPassing clouds.6 mph73%29.87 "Hg15 mi
3:00 AM72 °FPassing clouds.7 mph69%29.88 "Hg15 mi
2:00 AM70 °FPassing clouds.2 mph78%29.88 "Hg15 mi
1:00 AM72 °FPassing clouds.2 mph73%29.89 "Hg15 mi
12:00 AM72 °FPassing clouds.3 mph78%29.90 "Hg15 mi
11:00 PM
Wed, Jul 27
73 °FOvercast.3 mph74%29.88 "Hg15 mi
10:00 PM75 °FOvercast.7 mph69%29.88 "Hg15 mi
Weather by CustomWeather, © 2016

See weather overviewHow to use our weather pages